Flag for U.S.A. Weather past 2 weeks in El Paso, Texas, U.S.A.

Now
71 °F

Broken clouds.


Feels Like: 73 °F
Forecast: 67 / 82 °F
Wind: No wind

Location: El Paso International Airport

Current Time: Sep 23, 2014 at 10:53:56 AM

Latest Report: Sep 23, 2014 at 9:51 AM


Visibility: 10 mi

Pressure: 30.03 "Hg

Humidity: 73%

Dew point: 62 °F

Location of El PasoLocation

Historic Weather in El Paso — Graph

°F

El Paso temperature yesterday

Maximum temperature yesterday: 73 °F (at 1:51 PM)
Minimum temperature yesterday: 65 °F (at 6:51 AM)
Average temperature yesterday: 70 °F

Past Weeks' High & Low Weather Summary

 TemperatureHumidityPressure
High91 °F (Sep 10, 3:51 PM)97% (Sep 17, 8:51 PM)30.20 "Hg (Sep 17, 8:51 PM)
Low56 °F (Sep 13, 6:51 AM)22% (Sep 10, 4:51 PM)29.70 "Hg (Sep 10, 4:51 PM)
Average73 °F65%29.90 "Hg
* Reported Sep 8 8:51 AM — Sep 23 8:51 AM, El Paso, Weather by CustomWeather, © 2014

Note: Actual official high and low records may vary slightly from our data, if they occured in-between our weather recording intervals... More about our weather records

Advertising

El Paso weather history for previous 24 hours

 ConditionsComfort  
Time TempWeatherWind HumidityBarometerVisibility
8:51 AM
Sep 23
69 °FPartly sunny.No wind79%30.03 "Hg10 mi
7:51 AM68 °FPassing clouds.No wind84%30.02 "Hg10 mi
6:51 AM66 °FPassing clouds.3 mph90%30.00 "Hg7 mi
5:51 AM66 °FPassing clouds.6 mph93%29.98 "Hg10 mi
4:51 AM68 °FPassing clouds.No wind87%29.99 "Hg10 mi
3:51 AM69 °FMostly cloudy.3 mph81%30.00 "Hg10 mi
2:51 AM68 °FPassing clouds.No wind87%30.01 "Hg10 mi
1:51 AM69 °FPassing clouds.3 mph84%30.01 "Hg10 mi
12:51 AM69 °FPassing clouds.No wind84%30.02 "Hg10 mi
11:51 PM
Sep 22
69 °FPartly cloudy.No wind84%30.03 "Hg10 mi
10:51 PM69 °FPartly cloudy.5 mph84%30.03 "Hg10 mi
9:51 PM70 °FLight rain. Partly cloudy.3 mph81%30.02 "Hg10 mi
8:51 PM70 °FPartly cloudy.6 mph84%30.03 "Hg10 mi
7:51 PM70 °FCloudy.5 mph87%30.00 "Hg10 mi
6:51 PM71 °FBroken clouds.7 mph81%29.99 "Hg10 mi
5:51 PM72 °FMostly cloudy.8 mph78%29.98 "Hg10 mi
4:51 PM71 °FCloudy.8 mph81%29.98 "Hg10 mi
3:51 PM70 °FCloudy.9 mph81%29.97 "Hg10 mi
2:51 PM71 °FMostly cloudy.12 mph84%29.97 "Hg10 mi
1:51 PM73 °FBroken clouds.8 mph79%29.98 "Hg10 mi
12:51 PM71 °FLight rain. Mostly cloudy.7 mph87%30.01 "Hg10 mi
11:51 AM70 °FLight rain. Mostly cloudy.6 mph90%30.04 "Hg7 mi
10:51 AM70 °FLight rain. Overcast.6 mph84%30.04 "Hg8 mi
Weather by CustomWeather, © 2014

See weather overviewHow to use our weather pages